Location: Colle Santa Colomba
(42.0333°N, 12.5667°E)
Time: 02:48:29
(UTC+00:00)

Cosmos 2237 - Pass Details

Date: 25 October 2021
Orbit: 845 x 856 km, 70.8° (Epoch: 28 November)

Event Time Altitude Azimuth Distance (km) Brightness Sun altitude
Rises 17:10:11 0° 193° (SSW) 3,403 7.6 -11.2°
Reaches altitude 10° 17:12:38 10° 191° (S) 2,473 6.9 -11.7°
Maximum altitude 17:18:15 65° 110° (ESE) 935 4.2 -12.7°
Drops below altitude 10° 17:23:55 10° 30° (NNE) 2,495 6.3 -13.8°
Sets 17:26:24 0° 28° (NNE) 3,436 7.1 -14.3°
